Left ArrowRight Arrow

Hourly Observations for July 11, 2020

Temp ( °F °C ) Dew Point ( °F °C ) Humidity (%) Winds ( mph kmh ) Pressure ( in mb ) Visibility ( mi km ) Precip ( " mm )
12:28 am 00:28 Cloudy with Light Rain 74 23.3 72 22.2 94 94 S 14 22 29.61 1003 4 6 0.02 0.51
12:51 am 00:51 Cloudy with Light Rain 74 23.3 72 22.2 94 94 S 15 24 29.61 1003 4 6 0.02 0.51
1:19 am 01:19 Cloudy 74 23.3 72 22.2 94 94 SSW 17 28 29.62 1003 9 14 0.00 0.00
1:51 am 01:51 Cloudy with Mist and Fog 73 22.8 72 22.2 96 96 SSW 18 30 29.63 1003 5 8 0.00 0.00
2:51 am 02:51 Cloudy 74 23.3 71 21.7 91 91 SSW 16 26 29.64 1004 10 16 0.01 0.25
3:51 am 03:51 Mostly Cloudy 74 23.3 71 21.7 91 91 SW 18 30 29.66 1004 10 16 0.00 0.00
4:51 am 04:51 Clear 73 22.8 70 21.1 90 90 SSW 9 15 29.67 1005 10 16 0.00 0.00
5:51 am 05:51 Sunny 73 22.8 70 21.1 90 90 SW 6 9 29.68 1005 10 16 0.00 0.00
6:51 am 06:51 Sunny 74 23.3 71 21.7 91 91 S 5 7 29.69 1006 10 16 0.00 0.00
7:51 am 07:51 Partly Cloudy 76 24.4 72 22.2 88 88 S 6 9 29.70 1006 10 16 0.00 0.00
8:51 am 08:51 Mostly Sunny 79 26.1 71 21.7 77 77 SSW 8 13 29.70 1006 10 16 0.00 0.00
9:51 am 09:51 Partly Cloudy 81 27.2 74 23.3 79 79 SSW 8 13 29.70 1006 10 16 0.00 0.00
10:51 am 10:51 Partly Cloudy 81 27.2 74 23.3 79 79 S 6 9 29.70 1006 10 16 0.00 0.00
11:51 am 11:51 Mostly Cloudy 83 28.3 74 23.3 74 74 S 8 13 29.69 1005 10 16 0.00 0.00
12:51 pm 12:51 Mostly Cloudy with Drizzle 84 28.9 74 23.3 72 72 SSW 10 17 29.68 1005 10 16 0.00 0.00
1:13 pm 13:13 Partly Cloudy with Thunderstorms 85 29.4 74 23.3 70 70 SSW 9 15 29.67 1005 10 16 0.00 0.00
1:32 pm 13:32 Mostly Cloudy with Nearby Thunderstorms 84 28.9 74 23.3 72 72 SSE 9 15 29.67 1005 10 16 0.00 0.00
1:39 pm 13:39 Mostly Cloudy 85 29.4 74 23.3 70 70 SSE 14 22 29.67 1005 10 16 0.00 0.00
1:51 pm 13:51 Mostly Cloudy 83 28.3 74 23.3 74 74 SSE 12 19 29.66 1004 10 16 0.00 0.00
2:30 pm 14:30 Mostly Cloudy with Thunderstorms 82 28 75 24 79 79 ESE 10 17 29.64 1004 10 16 0.00 0.00
2:48 pm 14:48 Mostly Cloudy with Thunderstorms 81 27 75 24 84 84 S 6 9 29.65 1004 7 11 0.11 2.79
2:51 pm 14:51 Mostly Cloudy with Thunderstorms 80 26.7 76 24.4 87 87 SSW 5 7 29.65 1004 7 11 0.13 3.30
3:16 pm 15:16 Cloudy with Nearby Thunderstorms 77 25 73 22.8 88 88 Calm 29.64 1004 10 16 0.15 3.81
3:51 pm 15:51 Mostly Sunny 83 28.3 77 25 82 82 SE 6 9 29.63 1003 10 16 0.15 3.81
4:51 pm 16:51 Partly Cloudy 85 29.4 74 23.3 70 70 S 12 19 29.60 1003 10 16 0.00 0.00
5:51 pm 17:51 Mostly Sunny 85 29.4 74 23.3 70 70 S 12 19 29.59 1002 10 16 0.00 0.00
6:47 pm 18:47 Cloudy with Nearby Thunderstorms 81 27 73 23 79 79 SW 17 28 29.62 1003 7 11 0.02 0.51
6:51 pm 18:51 Cloudy with Strong Thunderstorms 77 25 71 21.7 82 82 WSW 14 22 29.61 1003 2 2 0.04 1.02
6:53 pm 18:53 Mostly Cloudy with Strong Thunderstorms 77 25 71 21.7 82 82 W 12 19 29.61 1003 1 1 0.03 0.76
6:55 pm 18:55 Mostly Cloudy with Strong Thunderstorms 76 24.4 71 21.7 85 85 W 8 13 29.62 1003 1 2 0.09 2.29
7:12 pm 19:12 Mostly Cloudy with Nearby Thunderstorms 76 24.4 71 21.7 85 85 S 8 13 29.62 1003 8 13 0.26 6.60
7:51 pm 19:51 Partly Cloudy with Nearby Thunderstorms 75 23.9 71 21.7 88 88 S 6 9 29.62 1003 10 16 0.26 6.60
8:33 pm 20:33 Mostly Cloudy 77 25 71 21.7 82 82 SW 5 7 29.64 1004 10 16 0.02 0.51
8:51 pm 20:51 Mostly Cloudy 75 23.9 72 22.2 90 90 Calm 29.64 1004 10 16 0.02 0.51
9:51 pm 21:51 Clear 75 23.9 72 22.2 90 90 Calm 29.65 1004 10 16 0.00 0.00
10:51 pm 22:51 Clear 74 23.3 72 22.2 94 94 SSW 6 9 29.66 1004 10 16 0.00 0.00
11:51 pm 23:51 Clear 75 23.9 70 21.1 84 84 SW 6 9 29.66 1005 10 16 0.00 0.00

Powered by Vaisala Xweather